OpenBCM V1.13 (Linux)

Packet Radio Mailbox

DB0FHN

[JN59NK Nuernberg]

 Login: GUEST





  
LU9DCE > KEP      14.04.19 19:33l 252 Lines 12366 Bytes #999 (0) @ WW
BID : 21424_LU9DCE
Read: DF7EAV DK3UZ GUEST
Subj: TLE 14 04
Path: DB0FHN<DB0BLO<DB0ERF<DB0RES<IR2UBX<IZ3LSV<IW0QNL<JH4XSY<N3HYM<LU9DCE
Sent: 190414/1801Z 21424@LU9DCE.TOR.BA.ARG.SOAM LinBPQ6.0.18

            __    _  _  ___  ____   ___  ____    ____  ____  ____
           (  )  / )( \/ _ \(    \ / __)(  __)  (  _ \(  _ \/ ___)
           / (_/\) \/ (\__  )) D (( (__  ) _)    ) _ ( ) _ (\___ \
           \____/\____/(___/(____/ \___)(____)  (____/(____/(____/
               ESTACION DE PACKET RADIO - BUENOS AIRES (GF05OM)
                   BOLETINES INFORMATIVOS PROGRAMADOS (BIP)
                  SOPORTE TECNICO - HELLOCODELINUX@GMAIL.COM

+----------------------------------------------------------------------------+
OSCAR 7
1  7530U 74089B   19103.94282983 -.00000023  00000-0  13559-3 0  9994
2  7530 101.7373  72.2963 0012480 113.0122 281.9266 12.53637578 32289
OSCAR 11 (UoSAT 2)
1 14781U 84021B   19104.12071293  .00000105  00000-0  19073-4 0  9996
2 14781  97.6175 131.9180 0008837 165.3213 194.8259 14.83076119889045
OSCAR 19 (LUSAT)
1 20442U 90005G   19103.89186500 +.00000006 +00000-0 +18493-4 0  9992
2 20442 098.6432 046.0225 0011573 349.2428 010.8506 14.32921920526897
EYESAT A
1 22825U 93061C   19103.94103405 +.00000015 +00000-0 +23879-4 0  9997
2 22825 098.8999 091.0905 0008246 183.1419 176.9712 14.30055569332283
ITAMSAT
1 22826U 93061D   19103.95801596 +.00000017 +00000-0 +24553-4 0  9997
2 22826 098.8940 091.1077 0008992 172.4886 187.6431 14.30388826332505
RADIO ROSTO
1 23439U 94085A   19103.88514558 -.00000059 +00000-0 -47085-3 0  9998
2 23439 064.8161 222.5409 0147653 125.9304 235.5422 11.27567950000470
JAS 2
1 24278U 96046B   19103.88838232 +.00000006 +00000-0 +40440-4 0  9996
2 24278 098.5275 266.2562 0351102 050.8053 312.3718 13.53090175118653
TECHSAT 1B
1 25397U 98043D   19104.39873443 -.00000008  00000-0  15924-4 0  9990
2 25397  98.6836  45.3532 0000834 166.1601 193.9601 14.23663441 78587
ISS (ZARYA)
1 25544U 98067A   19104.56101663  .00003926  00000-0  70248-4 0  9998
2 25544  51.6432 317.4919 0001551 176.6079 222.2368 15.52555382165373
PCSAT
1 26931U 01043C   19103.71120300 -.00000035  00000-0  18475-4 0  9995
2 26931  67.0510 173.9419 0005846 277.9156  82.1282 14.30538077915530
SAUDISAT 1C
1 27607U 02058C   19104.55031418  .00000027  00000-0  24600-4 0  9994
2 27607  64.5545 248.7542 0082401 268.9217  90.2444 14.75535430877423
CUTE-1
1 27844U 03031E   19103.94181194 +.00000067 +00000-0 +49790-4 0  9999
2 27844 098.6863 113.1323 0009096 215.7089 144.3481 14.22169830818904
CUBESAT XI 4
1 27848U 03031J   19104.54862647  .00000049  00000-0  42260-4 0  9994
2 27848  98.6941 114.2154 0008844 225.9640 134.0809 14.21766144818882
MOZHAYETS 4
1 27939U 03042A   19104.55920420  .00000176  00000-0  40060-4 0  9999
2 27939  98.0292 241.6871 0011294 273.0772  86.9148 14.66769285830995
CUBESAT XI 5
1 28895U 05043F   19104.08509110  .00000178  00000-0  43065-4 0  9991
2 28895  97.9482 249.1038 0016549 194.1965 165.8774 14.63648302717886
CUTE-1.7+APD II
1 32785U 08021C   19104.20099442  .00000267  00000-0  34410-4 0  9992
2 32785  97.5498 107.0068 0014524 117.1075 243.1626 14.88278235593941
DELFI C3
1 32789U 08021G   19104.20979268  .00001650  00000-0  11472-3 0  9998
2 32789  97.4719 155.8319 0011788 357.6766   2.4405 15.06796620597104
SEEDS
1 32791U 08021J   19104.53070988  .00000312  00000-0  37073-4 0  9998
2 32791  97.5298 113.2212 0015049  94.8324 265.4613 14.90774632594407
YUBELEINY
1 32953U 08025A   19104.37201562  .00000020  00000-0  75656-4 0  9993
2 32953  82.5064 185.3806 0017827 271.1405  88.7629 12.43088755494195
PRISM (HITOMI)
1 33493U 09002B   19103.80685214 +.00000441 +00000-0 +44209-4 0  9993
2 33493 098.1229 022.2653 0016461 044.8262 315.4285 14.96581627555281
KKS-1 (KISEKI)
1 33499U 09002H   19103.89195043 +.00000144 +00000-0 +29338-4 0  9990
2 33499 098.3544 300.4838 0010314 060.2240 299.9992 14.75422781549099
SWISSCUBE
1 35932U 09051B   19104.39248315  .00000147  00000-0  44377-4 0  9998
2 35932  98.5805 268.4785 0007720  15.3588 344.7842 14.56262905507278
BEESAT
1 35933U 09051C   19103.91858094 +.00000137 +00000-0 +41944-4 0  9993
2 35933 098.5838 269.7168 0006276 031.8934 328.2642 14.56354761507230
ITUPSAT 1
1 35935U 09051E   19104.41961076  .00000110  00000-0  36492-4 0  9999
2 35935  98.5949 270.4746 0008469  24.1341 336.0250 14.55517773507144
XIWANG-1 (HOPE-1)
1 36122U 09072B   19104.44771897 -.00000041  00000-0  40681-5 0  9994
2 36122 100.0734 109.8946 0007662 129.0000 231.1797 13.16349056448296
TISAT 1
1 36799U 10035E   19104.45471323  .00000327  00000-0  39175-4 0  9998
2 36799  98.1459 254.4803 0011047 303.1474  56.8683 14.91051948475041
JUGNU
1 37839U 11058B   19103.14125572  .00000317  00000-0  27187-4 0  9996
2 37839  19.9625  18.3437 0018812 313.4982 188.8048 14.12646999387837
SRMSAT
1 37841U 11058D   19103.30811751  .00000293  00000-0  15910-4 0  9992
2 37841  19.9721  72.7310 0011878 186.5135 321.1871 14.10628593387301
M-CUBED/EXP-1 PRIME
1 37855U 11061F   19104.19609251  .00000915  00000-0  54085-4 0  9996
2 37855 101.7242 326.1493 0173876 270.9528  87.1766 15.05263881406925
HORYU 2
1 38340U 12025D   19103.87262876  .00000194  00000-0  36369-4 0  9993
2 38340  98.3367 140.4622 0010857 340.3445  19.7344 14.75691304371457
STRAND 1
1 39090U 13009E   19103.54978805  .00000021  00000-0  22645-4 0  9990
2 39090  98.4954 310.5928 0010151 121.5888 238.6289 14.35077816320905
SOMP
1 39134U 13015E   19103.83220496  .00001906  00000-0  96901-4 0  9993
2 39134  64.8641 233.7794 0024812 315.5719  44.3418 15.19983987330587
BEESAT 3
1 39135U 13015F   19103.90164302 +.00001346 +00000-0 +76906-4 0  9996
2 39135 064.8662 250.9455 0011691 315.2704 044.7479 15.17319780329871
BEESAT 2
1 39136U 13015G   19103.84834913 +.00001365 +00000-0 +79028-4 0  9991
2 39136 064.8680 254.7368 0012731 308.5630 051.4354 15.16761420329795
CUBEBUG 1
1 39153U 13018D   19104.34249205  .00000208  00000-0  34034-4 0  9996
2 39153  97.9743 202.8519 0018013  53.7230 306.5643 14.80539484322158
ZACUBE
1 39417U 13066B   19104.51048027  .00000239  00000-0  36490-4 0  9992
2 39417  97.5667 121.6626 0057533 247.0823 112.4312 14.81083261291391
TRITON 1
1 39427U 13066M   19103.94475202 +.00000328 +00000-0 +60130-4 0  9995
2 39427 097.6709 085.4065 0114373 016.7660 343.7277 14.67808718288504
GOMX 1
1 39430U 13066Q   19104.48148734  .00000276  00000-0  58323-4 0  9999
2 39430  97.7400  65.3582 0152682  99.6376 262.2100 14.59220325287093
HUMSAT D
1 39433U 13066T   19103.82943415 +.00000616 +00000-0 +65332-4 0  9994
2 39433 097.5615 154.0001 0031539 157.9206 202.3380 14.92131546292073
CUBEBUG 2
1 39440U 13066AA  19103.98531948  .00000255  00000-0  42618-4 0  9994
2 39440  97.6022 106.3041 0078902 299.0060  60.3259 14.75822460290280
FUNCUBE 1
1 39444U 13066AE  19104.54688640  .00000276  00000-0  40463-4 0  9992
2 39444  97.5652 123.5771 0056724 240.9444 118.6080 14.81895052290285
UWE-3
1 39446U 13066AG  19104.03430515  .00000244  00000-0  39193-4 0  9997
2 39446  97.5833 113.2891 0068472 274.4171  84.9220 14.78356579289561
SPROUT
1 39770U 14029E   19104.23797210  .00000720  00000-0  85980-4 0  9991
2 39770  97.8797 207.9846 0007748 306.7436  53.3075 14.87252968265105
UNISAT 6
1 40012U 14033C   19103.89447106  .00000186  00000-0  35319-4 0  9991
2 40012  97.7674 333.3032 0057310 311.1968  48.4307 14.73949461258998
DUCHIFAT 1
1 40021U 14033M   19103.82543284 +.00000432 +00000-0 +50058-4 0  9999
2 40021 097.9229 028.2088 0011423 267.9925 091.9985 14.90573514261735
QB50P1
1 40025U 14033R   19103.77315651  .00000354  00000-0  43743-4 0  9998
2 40025  97.9064  23.5637 0010987 278.0737  81.9233 14.88902454261519
CHUBUSAT 1
1 40300U 14070C   19104.30221576  .00001115  00000-0  51693-4 0  9996
2 40300  97.3321 180.1284 0018209 288.6725 111.4740 15.21994009246073
NUDT-PHONESAT
1 40900U 15049B   19104.38910684  .00003384  00000-0  14866-3 0  9992
2 40900  97.4403 114.3740 0014818  58.6977  48.5564 15.22514277197720
ZDPS 2A
1 40901U 15049C   19104.40645155  .00001583  00000-0  81866-4 0  9998
2 40901  97.4616 111.1782 0015536  71.7520  35.9912 15.17609566197330
ZDPS 2B
1 40902U 15049D   19104.35849994  .00001257  00000-0  66149-4 0  9995
2 40902  97.4557 108.7195 0015553  69.8945  46.1689 15.17380320197309
XW-2A
1 40903U 15049E   19104.55923882  .00002950  00000-0  71983-4 0  9990
2 40903  97.3459 146.9359 0014696  28.6322 118.1968 15.41597911200213
KAITUO 1A
1 40904U 15049F   19104.49628146  .00000531  00000-0  31624-4 0  9990
2 40904  97.4675 107.6264 0016528  75.4337  42.9029 15.15298736197127
OBJECT G
1 40905U 15049G   19104.39686559  .00000932  00000-0  54435-4 0  9992
2 40905  97.4710 105.1631 0017654  70.4348  39.2439 15.14235200196991
XW-2C
1 40906U 15049H   19104.37606369  .00000855  00000-0  48388-4 0  9996
2 40906  97.4679 107.5436 0016693  68.5738  38.8129 15.15584295197105
XW-2D
1 40907U 15049J   19104.49576971  .00000972  00000-0  54268-4 0  9999
2 40907  97.4663 107.3387 0016113  65.7625  53.2192 15.15765530197130
LILACSAT 2
1 40908U 15049K   19104.42544818  .00000555  00000-0  34302-4 0  9992
2 40908  97.4791 106.2211 0017962  69.5196  66.4895 15.13747186196933
XW-2F
1 40910U 15049M   19104.45491442  .00001607  00000-0  84108-4 0  9990
2 40910  97.4637 109.1580 0016391  60.0498  73.2563 15.17153457197128
XW-2B
1 40911U 15049N   19104.39101337  .00001197  00000-0  66166-4 0  9993
2 40911  97.4683 107.8681 0015924  67.3933  38.3406 15.15700097197014
KAITUO 1B
1 40912U 15049P   19104.45352707  .00001835  00000-0  89531-4 0  9990
2 40912  97.4526 112.6584 0016378  45.7648  90.7171 15.19447126197403
TIANWANG 1C (TW-1C)
1 40926U 15051B   19104.40679917  .00015532  00000-0  23862-3 0  9991
2 40926  97.1440 150.7022 0006599 246.8588 241.4815 15.54322658200014
